Regional Weather Roundup
Issued by NWS

Home | Current Version | Previous Version | Graphics & Text | Print | Product List | Glossary On
Versions: 1 2 3 4 5 6 7 8 9 10 11 12 13 14 15 16 17 18 19 20 21 22 23 24 25 26 27
000
ASUS45 KBOU 291807
RWRCO

WEATHER ROUNDUP FOR COLORADO
NATIONAL WEATHER SERVICE DENVER/BOULDER CO
1200 PM MDT MON AUG 29 2016

NOTE: "FAIR" INDICATES FEW OR NO CLOUDS BELOW 12000 FEET WITH NO
SIGNIFICANT WEATHER AND/OR OBSTRUCTIONS TO VISIBILITY.

COZ001>005-013-030-031-291900-
...NORTHWEST COLORADO...

CITY           SKY/WX    TMP DP  RH WIND       PRES   REMARKS
CRAIG          FAIR      75  35  23 N5        30.35F
HAYDEN         FAIR      66  39  37 E6        30.38F
MEEKER         FAIR      75  41  29 S7        30.34F
MOUNT WERNER   NOT AVBL
STEAMBOAT SPGS FAIR      64  39  40 CALM      30.40F
WALDEN         FAIR      59  36  41 W3        30.50F
$$

COZ006>008-011-291900-
...WEST CENTRAL VALLEYS...

CITY           SKY/WX    TMP DP  RH WIND       PRES   REMARKS
GRAND JUNCTION FAIR      77  43  29 SE5       30.26F
MONTROSE       FAIR      68  45  43 VRB3      30.35F
EAGLE          CLOUDY    61  46  59 CALM      30.44F
RIFLE          FAIR      66  47  50 E3        30.34S
DELTA          FAIR      70  46  41 E6        30.32F
NUCLA          NOT AVBL
$$

COZ017>023-064>068-291900-
...SOUTHWEST COLORADO...

CITY           SKY/WX    TMP DP  RH WIND       PRES   REMARKS
DURANGO        FAIR      70  38  31 VRB5      30.36F
CORTEZ         FAIR      72  45  37 CALM      30.32F
PAGOSA SPRINGS FAIR      66  37  33 S3        30.42F
TELLURIDE      PTSUNNY   60  40  48 W6        30.53S
WOLF CREEK PAS FAIR      46  36  66 CALM      30.69S
$$

COZ009-010-012-014-032>034-037-058>063-291900-
...CENTRAL COLORADO...

CITY           SKY/WX    TMP DP  RH WIND       PRES   REMARKS
ASPEN          CLOUDY    59  41  51 S5        30.45F
BUENA VISTA    CLOUDY    62  42  47 CALM      30.49S
COPPER MTN     PTSUNNY   54  36  50 SE7       30.71F
BERTHOUD PASS  FAIR      43  30  61 E12G20    30.77S
COTTONWOOD PAS CLOUDY    55  41  58 CALM      30.60S
GUNNISON       FAIR      57  43  58 N6        30.49F
KREMMLING      FAIR      55  41  58 CALM      30.49F
LEADVILLE      CLOUDY    46  41  82 SW3       30.58F
MONARCH PASS   CLOUDY    43  39  87 NE23      30.78S
SALIDA         FAIR      66  43  42 CALM      30.53F
SUNLIGHT       FAIR      55  43  62 SW5       30.66S
WILKERSON PASS FAIR      50  41  71 E9        30.70S
$$

COZ069>075-291900-
...SAN LUIS VALLEY/SANGRE DE CRISTO MOUNTAINS...

CITY           SKY/WX    TMP DP  RH WIND       PRES   REMARKS
ALAMOSA        FAIR      62  44  51 NE5       30.43F
LA VETA PASS   CLOUDY    54  41  62 NE8       30.59F THUNDER
SAGUACHE       FAIR      64  45  48 S6        30.45F
$$

COZ035-036-038>040-291900-
...NORTHERN COLORADO FRONT RANGE...

CITY           SKY/WX    TMP DP  RH WIND       PRES   REMARKS
DENVER INTL AP FAIR      82  42  24 NE9       30.31S
DMNS CITY PARK   N/A     80  43  26 SW8       30.31F
AURORA         MOSUNNY   79  42  27 E1        30.32F
FRONT RANGE AP PTSUNNY   82  45  26 E13G25    30.33S
ERIE MUNI ARPT FAIR      77  41  27 N3        30.31S
BOULDER MUN AP FAIR      77  43  29 CALM      30.32S
CENTENNIAL     PTSUNNY   75  41  29 N7        30.33F
BROOMFIELD     PTSUNNY   77  45  31 NW6       30.34F
FORT COLLINS   FAIR      79  45  29 E3        30.29F
LONGMONT       FAIR      78  45  30 NE3       30.32S
$$

COZ041-046-047-076>085-087-088-291900-
...PIKES PEAK/PALMER DIVIDE AND SOUTHERN FOOTHILLS...

CITY           SKY/WX    TMP DP  RH WIND       PRES   REMARKS
COLO. SPRINGS  PTSUNNY   73  49  42 E5G17     30.37F
A. F. ACADEMY  CLOUDY    70  46  41 S7        30.37F
SCHRIEVER AFB  NOT AVBL
ELLICOTT       NOT AVBL
FALCON         FAIR      71  49  46 E6        30.42F
FORT CARSON    FAIR      73  51  45 E8        30.34F
LIMON          CLOUDY    73  51  46 E13       30.33S
MONUMENT HILL  FAIR      66  48  52 E8        30.43F
TRINIDAD       CLOUDY    68  48  48 SW9       30.36S
$$

COZ042>045-048>051-090-091-291900-
...NORTHEAST COLORADO...

CITY           SKY/WX    TMP DP  RH WIND       PRES   REMARKS
GREELEY ARPT   FAIR      81  52  36 CALM      30.29F
AKRON          FAIR      77  49  37 E7        30.29S
BURLINGTON     FAIR      74  58  57 SE13      30.28S
WRAY           FAIR      77  59  53 S8        30.25F
STERLING       FAIR      82  52  34 NE5       30.24S
HOLYOKE        FAIR      81  59  47 S3        30.25S
FORT MORGAN    FAIR      80  48  32 E6        30.29S
$$

COZ086-089-092>099-291900-
...SOUTHEAST COLORADO...

CITY           SKY/WX    TMP DP  RH WIND       PRES   REMARKS
PUEBLO         PTSUNNY   78  51  38 SE12      30.29S
LA JUNTA       FAIR      71  56  58 SE6       30.27F
LAMAR          CLOUDY    69  60  73 SE3       30.25F
SPRINGFIELD      N/A     69  53  56 N5        30.29S
$$




USA.gov is the U.S. government's official web portal to all federal, state and local government web resources and services.